Location: Bishausen
(51.6334°N, 9.9631°E)
Time: 10:34:50
(UTC+00:00)

MOZ.5/SAFIR/RUBIN 5/SL-8 - Pass Details

Date: 23 May 2024
Orbit: 671 x 700 km, 98.3° (Epoch: 18 June)

Event Time Altitude Azimuth Distance (km) Brightness Sun altitude
Exits shadow 01:18:32 19° 198° (SSW) 1,644 5.1 -13.0°
Maximum altitude 01:21:37 43° 262° (W) 985 4.3 -12.7°
Drops below altitude 10° 01:26:07 10° 334° (NNW) 2,159 6.8 -12.4°
Sets 01:28:29 0° 341° (NNW) 3,076 7.7 -12.2°
